Aérodrome :
LOGIN :

S'inscrire | Disclaimer

   EN    FR    IT 

 










Légende :    VFR   VFR Marginal   IFR   IFR Intensif   IFR Très Intensif
Visi : 
Plafond : 
>= 8 km
>= 3000ft
5 à 8 km
1000 à 3000 ft
1500m à 5 km
500 à 1000 ft
800 à 1500m
200 à 500 ft
< 800m
< 200 ft
Symboles :   Orages  Brouillard  Fortes neiges  Fortes précipitations  Vent > 20 kt
SIGMETs :   Divers  Orages  Givrage  Turbulence  Onde Orograph.  Cendres Volcan.







- Altitude de l'aérodrome : 75 ft
- Code IATA : YEO


EGDY - RNAS Yeovilton

DERNIER METAR :
  • 240850Z 32003KT 9999 BKN010 15/13 Q1027 GRN BECMG 9999 FEW012 SCT025 BLU

METARs EXPIRÉS :
  • 240750Z 35002KT 6000 HZ OVC005 14/13 Q1027 YLO1 BECMG 8000 HZ BKN008 GRN
  • 240650Z 33004KT 3000 BR OVC003 13/13 Q1027 YLO2 BECMG 8000 HZ BKN008 GRN

TAF TAF EGDY
Valide du 24 à 09h jusqu'au 24 à 18h UTC


240723Z 2409/2418 33004KT 8000 HZ BKN008
BECMG 2409/2411 9999 FEW012 SCT025
Pas de NOTAMs connus pour ce terrain.



MET'MAP, la Météo Aéronautique d'un coup d'oeil ! - Copyright ORBIFLY Décembre 2007 - Disclaimer

ORBIFLY MET'MAP TEAM :

Programmation & Développement : Alexandra Zaïnal
Conception & Développement : Baudouin d'Aumeries
Co-Programmation & Développement : Marc-Olivier Méhu
Soutien technique & logistique : Manuel Goepfert

Contact : metmap@orbifly.com




SOURCES & CREDITS :

   NOAA